[[{"header":{"parameterUnit":"m.s-1","parameterCategory":1,"la1":30.2991,"la2":30.254,"lo1":-89.0895,"lo2":-89.0444,"dy":0.0017,"dx":0.0017,"nx":28,"ny":28,"refTime":"2024-07-09T03:00:00:Z","depth":0,"parameterNumber":2,"parameterNumberName":"U-component_of_WINDS"},"data":[0,0,0,0,0,0,0,0,0,0,0,0,0,0,0,0,0,0,0,0,0,0,0,0,0,0,0,0,0,0,0,0,0,0,0,0,0,0,0,0,0,0,0,0,0,0,0,0,0,0,0,0,0,0,0,0,0,0,2.4081,2.4082,0,2.4185,2.4186,2.4188,2.4145,2.4143,2.4141,2.4138,2.4249,2.4254,2.4259,0,0,0,0,0,0,0,0,0,0,0,0,0,2.3847,2.3851,2.408,2.4082,2.4083,2.4185,2.4186,2.4188,2.4146,2.4143,2.414,2.4137,2.4247,2.4253,2.426,0,0,0,0,0,0,0,0,0,0,0,0,0,2.3949,2.3853,2.408,2.4074,2.4075,2.4185,2.4187,2.4188,2.4147,2.4143,2.4139,2.4136,2.4245,2.4253,2.426,2.4383,0,0,2.4285,2.4288,0,0,0,0,0,0,0,0,2.3944,2.3958,2.4074,2.4075,2.4076,2.4148,2.4144,2.4254,2.4148,2.4119,2.4138,2.4134,2.4219,2.4228,2.4256,2.4389,2.4393,2.4285,2.429,2.4293,2.4296,0,0,0,0,0,0,0,2.3937,2.3953,2.4122,2.4076,2.4077,2.4067,2.4078,2.4165,2.4189,2.4122,2.4119,2.4132,2.4218,2.4249,2.4259,2.4395,2.4285,2.4292,2.4297,2.43,2.4633,2.4636,0,0,0,0,0,0,2.3929,2.3948,2.4119,2.4125,2.3999,2.4074,2.4086,2.4129,2.4188,2.4193,2.4135,2.4129,2.4237,2.4249,2.4262,2.441,2.4293,2.4301,2.4305,2.4628,2.4633,2.4638,0,0,0,0,0,0,2.3924,2.3945,2.4114,2.4036,2.4057,2.4082,2.4131,2.4133,2.4163,2.4197,2.4202,2.4161,2.4235,2.4251,2.4353,2.4413,2.4304,2.4311,2.4624,2.463,2.4636,2.4705,0,0,0,0,0,0,2.3917,2.3943,2.399,2.4037,2.4061,2.4203,2.4134,2.4138,2.4177,2.417,2.4223,2.4229,2.4233,2.4342,2.4361,2.4422,2.4318,2.4618,2.4626,2.4634,2.4698,2.4713,2.4726,0,0,0,0,0,2.3909,2.4006,2.3992,2.4013,2.4119,2.4206,2.422,2.4222,2.4181,2.4229,2.425,2.4227,2.4403,2.4352,2.4374,2.4438,2.4615,2.4624,2.4633,2.4691,2.471,2.4726,0,0,0,0,0,0,2.3966,2.4012,2.3997,2.4112,2.4155,2.4199,2.4259,2.4242,2.4299,2.4291,2.4292,2.4305,2.441,2.4434,2.4377,2.4559,2.4503,2.4517,2.454,2.4558,2.4572,2.4564,2.4324,0,0,0,0,0,2.3992,2.4058,2.4095,2.4192,2.4215,2.4233,2.4271,2.4269,2.4314,2.4333,2.4362,2.4408,2.4474,2.4517,2.458,2.4701,2.4712,2.4756,2.477,2.4781,2.4793,2.4859,2.4878,2.4668,2.4668,2.4668,0,0,2.4046,2.4079,2.4121,2.4205,2.4238,2.4307,2.4249,2.4325,2.4376,2.4345,2.4442,2.4466,2.4517,2.4629,2.468,2.4652,2.4854,2.4793,2.4802,2.4808,2.487,2.489,2.4908,2.4674,2.4673,2.4672,0,0,2.418,2.4211,2.4296,2.433,2.4381,2.4392,2.4413,2.4459,2.4473,2.457,2.4548,2.461,2.4723,2.476,2.4794,2.494,2.4921,2.4961,2.5035,2.5099,2.5115,2.513,2.5182,2.5201,2.4973,2.4973,2.4973,0,2.4241,2.4343,2.4342,2.4419,2.4456,2.443,2.4515,2.4549,2.4618,2.4645,2.4613,2.4753,2.4787,2.4906,2.4942,2.4971,2.4994,2.4955,2.5113,2.5128,2.5141,2.5191,2.5211,2.4977,2.4977,2.4976,2.4976,0,2.4415,2.4486,2.4549,2.4614,2.4659,2.474,2.4751,2.4797,2.479,2.4805,2.4905,2.4943,2.5012,2.5041,2.5036,2.516,2.5142,2.5112,2.5055,2.5166,2.5212,2.5231,2.4984,2.4982,2.4981,2.498,0,0,2.4589,2.4651,2.4674,2.4703,2.4757,2.4812,2.4892,2.4959,2.4997,2.5046,2.5113,2.5209,2.5181,2.5219,2.5218,2.5274,2.5387,2.5237,2.5238,2.5263,2.5526,2.5548,2.557,2.5375,2.5378,2.5381,2.5522,0,2.4726,2.4865,2.4865,2.4994,2.5059,2.5034,2.5104,2.5145,2.5161,2.5219,2.5237,2.5305,2.5263,2.5286,2.534,2.5362,2.544,2.5352,2.5438,2.5441,2.5425,2.5595,2.5619,2.5749,2.554,2.5543,2.5545,0,2.4905,2.4957,2.5092,2.5135,2.5162,2.5225,2.5285,2.5341,2.5387,2.5395,2.5437,2.5427,2.5509,2.545,2.5563,2.5503,2.5538,2.5554,2.5559,2.5567,2.55,2.5607,2.5791,2.5811,2.5574,2.5572,2.557,0,2.5017,2.5122,2.5215,2.5241,2.5294,2.5338,2.5362,2.5404,2.5444,2.5497,2.5523,2.5585,2.562,2.5669,2.5677,2.5632,2.579,2.5731,2.5799,2.5799,2.5833,2.5831,2.6025,2.5857,2.5856,2.5856,2.5855,0,2.5171,2.5254,2.5266,2.5324,2.5416,2.5416,2.5508,2.5529,2.5566,2.5628,2.5611,2.5669,2.5676,2.5736,2.5743,2.5836,2.5852,2.586,2.5861,2.5862,2.5861,2.5885,2.5876,2.5861,2.586,2.5859,2.5858,0,2.5312,2.5323,2.5424,2.5465,2.5477,2.5543,2.5579,2.5634,2.5648,2.5726,2.5744,2.5766,2.5837,2.5849,2.5933,2.5937,2.6047,2.6039,2.6031,2.603,2.6097,2.6091,2.6314,2.6343,2.6155,2.6157,2.6158,0,2.5409,2.5472,2.5519,2.5558,2.5584,2.5648,2.5688,2.5691,2.5733,2.5789,2.5838,2.5906,2.596,2.6074,2.6098,2.6162,2.6155,2.6228,2.6164,2.6163,2.6155,2.6151,2.6158,2.6241,2.6243,2.6245,2.6246,0,2.558,2.5582,2.5639,2.5698,2.5746,2.5793,2.5838,2.5871,2.588,2.5928,2.5999,2.6041,2.6125,2.6193,2.6256,2.6282,2.6266,2.6266,2.6285,2.6286,2.6279,2.6283,2.6065,2.6261,2.6259,2.6258,2.6257,2.6257,2.5701,2.5756,2.5797,2.5861,2.5895,2.5937,2.599,2.601,2.6068,2.6136,2.6134,2.6212,2.6256,2.6338,2.6368,2.6429,2.6406,2.6434,2.6441,2.6447,2.6453,2.6269,2.6441,2.6441,2.644,2.644,2.644,0,2.5871,2.5896,2.5955,2.6017,2.6067,2.6046,2.6094,2.6138,2.6206,2.6248,2.6301,2.6382,2.6448,2.6477,2.6541,2.6585,2.6579,2.6602,2.6598,2.6605,2.6471,2.6448,2.6605,2.6605,2.6605,2.6605,2.6605,2.6605,2.5965,2.6055,2.6063,2.617,2.6194,2.6269,2.6298,2.6337,2.637,2.646,2.6514,2.6532,2.6569,2.6636,2.6695,2.6702,2.6726,2.6752,2.6756,2.6631,2.6614,2.6598,2.6576,2.6758,2.6758,2.6884,2.6885,2.6886]},{"header":{"parameterUnit":"m.s-1","parameterCategory":1,"la1":30.2991,"la2":30.254,"lo1":-89.0895,"lo2":-89.0444,"dy":0.0017,"dx":0.0017,"nx":28,"ny":28,"refTime":"2024-07-09T03:00:00:Z","depth":0,"parameterNumber":3,"parameterNumberName":"V-component_of_WINDS"},"data":[0,0,0,0,0,0,0,0,0,0,0,0,0,0,0,0,0,0,0,0,0,0,0,0,0,0,0,0,0,0,0,0,0,0,0,0,0,0,0,0,0,0,0,0,0,0,0,0,0,0,0,0,0,0,0,0,0,0,-0.6394,-0.6394,0,-0.6391,-0.6391,-0.6391,-0.6395,-0.6395,-0.6395,-0.6395,-0.6392,-0.6391,-0.6391,0,0,0,0,0,0,0,0,0,0,0,0,0,-0.6401,-0.6401,-0.6394,-0.6394,-0.6394,-0.6391,-0.6391,-0.6391,-0.6395,-0.6395,-0.6395,-0.6395,-0.6392,-0.6391,-0.6391,0,0,0,0,0,0,0,0,0,0,0,0,0,-0.6398,-0.6401,-0.6394,-0.6395,-0.6396,-0.6391,-0.6391,-0.6391,-0.6395,-0.6395,-0.6395,-0.6396,-0.6392,-0.6391,-0.6391,-0.6385,0,0,-0.639,-0.639,0,0,0,0,0,0,0,0,-0.6399,-0.6398,-0.6395,-0.6395,-0.6395,-0.6394,-0.6393,-0.6389,-0.6395,-0.6395,-0.6395,-0.6396,-0.6392,-0.6392,-0.6391,-0.6385,-0.6384,-0.639,-0.639,-0.639,-0.6389,0,0,0,0,0,0,0,-0.6399,-0.6398,-0.6393,-0.6395,-0.6395,-0.6396,-0.6396,-0.6392,-0.6392,-0.6395,-0.6395,-0.6395,-0.6392,-0.6391,-0.6391,-0.6384,-0.639,-0.639,-0.6389,-0.6389,-0.6373,-0.6373,0,0,0,0,0,0,-0.6399,-0.6398,-0.6393,-0.6393,-0.6398,-0.6396,-0.6395,-0.6394,-0.6392,-0.6392,-0.6395,-0.6395,-0.6391,-0.6391,-0.639,-0.6383,-0.639,-0.6389,-0.6389,-0.6373,-0.6373,-0.6373,0,0,0,0,0,0,-0.6399,-0.6398,-0.6393,-0.6396,-0.6395,-0.6395,-0.6394,-0.6394,-0.6393,-0.6392,-0.6392,-0.6394,-0.6392,-0.6391,-0.6386,-0.6383,-0.6389,-0.6389,-0.6374,-0.6373,-0.6373,-0.6368,0,0,0,0,0,0,-0.6399,-0.6398,-0.6396,-0.6396,-0.6395,-0.6389,-0.6394,-0.6394,-0.6392,-0.6393,-0.6391,-0.6391,-0.6392,-0.6387,-0.6386,-0.6382,-0.6389,-0.6374,-0.6373,-0.6373,-0.6368,-0.6367,-0.6367,0,0,0,0,0,-0.64,-0.6395,-0.6396,-0.6395,-0.6392,-0.6389,-0.6388,-0.639,-0.6392,-0.639,-0.6389,-0.6391,-0.6384,-0.6386,-0.6385,-0.6382,-0.6374,-0.6374,-0.6373,-0.6369,-0.6368,-0.6367,0,0,0,0,0,0,-0.6394,-0.6395,-0.6396,-0.6391,-0.639,-0.639,-0.6387,-0.6388,-0.6386,-0.6387,-0.6388,-0.6387,-0.6382,-0.6382,-0.6385,-0.6376,-0.6379,-0.6378,-0.6376,-0.6375,-0.6374,-0.6374,-0.6388,0,0,0,0,0,-0.6393,-0.639,-0.6391,-0.6386,-0.6385,-0.6386,-0.6385,-0.6386,-0.6385,-0.6384,-0.6383,-0.6382,-0.6379,-0.6377,-0.6375,-0.6369,-0.6368,-0.6366,-0.6365,-0.6364,-0.6363,-0.636,-0.6358,-0.6371,-0.6371,-0.6371,0,0,-0.6389,-0.6389,-0.6387,-0.6385,-0.6384,-0.6381,-0.6386,-0.6383,-0.638,-0.6383,-0.6379,-0.6378,-0.6377,-0.6371,-0.6369,-0.6371,-0.636,-0.6363,-0.6363,-0.6362,-0.6359,-0.6358,-0.6357,-0.6371,-0.6371,-0.6371,0,0,-0.6381,-0.6381,-0.6377,-0.6376,-0.6375,-0.6376,-0.6375,-0.6374,-0.6374,-0.637,-0.6372,-0.637,-0.6365,-0.6364,-0.6362,-0.6354,-0.6356,-0.6353,-0.6349,-0.6345,-0.6344,-0.6343,-0.634,-0.6339,-0.6353,-0.6353,-0.6353,0,-0.6376,-0.6372,-0.6374,-0.6371,-0.637,-0.6373,-0.6369,-0.6368,-0.6367,-0.6365,-0.6368,-0.6362,-0.6361,-0.6355,-0.6353,-0.6352,-0.6351,-0.6353,-0.6344,-0.6343,-0.6343,-0.6339,-0.6338,-0.6352,-0.6352,-0.6353,-0.6353,0,-0.6367,-0.6364,-0.6361,-0.6359,-0.6358,-0.6354,-0.6356,-0.6354,-0.6355,-0.6356,-0.6351,-0.635,-0.6348,-0.6346,-0.6348,-0.6341,-0.6342,-0.6344,-0.6348,-0.6341,-0.6338,-0.6337,-0.6352,-0.6352,-0.6352,-0.6352,0,0,-0.6354,-0.6354,-0.6353,-0.6353,-0.6352,-0.635,-0.6346,-0.6344,-0.6343,-0.6341,-0.6338,-0.6334,-0.6337,-0.6335,-0.6336,-0.6333,-0.6327,-0.6336,-0.6336,-0.6334,-0.6319,-0.6316,-0.6315,-0.6328,-0.6328,-0.6328,-0.6319,0,-0.6345,-0.634,-0.6342,-0.6336,-0.6333,-0.6337,-0.6333,-0.6333,-0.6333,-0.6331,-0.6331,-0.6328,-0.6332,-0.6331,-0.6328,-0.6328,-0.6324,-0.6329,-0.6324,-0.6324,-0.6324,-0.6314,-0.6311,-0.6303,-0.6318,-0.6317,-0.6317,0,-0.6334,-0.6333,-0.6327,-0.6327,-0.6326,-0.6323,-0.6322,-0.6319,-0.6319,-0.6319,-0.6318,-0.632,-0.6316,-0.632,-0.6315,-0.6319,-0.6317,-0.6317,-0.6316,-0.6315,-0.632,-0.6312,-0.63,-0.6298,-0.6316,-0.6316,-0.6316,0,-0.6325,-0.6322,-0.6318,-0.6317,-0.6318,-0.6316,-0.6315,-0.6315,-0.6314,-0.6312,-0.6311,-0.6309,-0.6308,-0.6306,-0.6307,-0.631,-0.6302,-0.6306,-0.6301,-0.6301,-0.6299,-0.6299,-0.6286,-0.6299,-0.6299,-0.6299,-0.6299,0,-0.6315,-0.6311,-0.6314,-0.6311,-0.6307,-0.6309,-0.6305,-0.6305,-0.6305,-0.6302,-0.6305,-0.6302,-0.6304,-0.6302,-0.6303,-0.6298,-0.6297,-0.6297,-0.6297,-0.6297,-0.6297,-0.6295,-0.6295,-0.6299,-0.6299,-0.6299,-0.6299,0,-0.6303,-0.6305,-0.6301,-0.6302,-0.6302,-0.6299,-0.6299,-0.6297,-0.6298,-0.6294,-0.6293,-0.6295,-0.6292,-0.6293,-0.629,-0.6291,-0.6284,-0.6286,-0.6285,-0.6285,-0.628,-0.628,-0.6265,-0.6263,-0.6278,-0.6278,-0.6278,0,-0.6296,-0.6293,-0.6294,-0.6292,-0.6292,-0.629,-0.6289,-0.6291,-0.629,-0.6289,-0.6287,-0.6284,-0.6282,-0.6278,-0.6278,-0.6276,-0.6277,-0.6272,-0.6276,-0.6275,-0.6276,-0.6276,-0.6275,-0.627,-0.627,-0.627,-0.627,0,-0.6283,-0.6284,-0.6283,-0.6281,-0.628,-0.6279,-0.6278,-0.6277,-0.6279,-0.6278,-0.6275,-0.6274,-0.6271,-0.6268,-0.6266,-0.6266,-0.6268,-0.6269,-0.6267,-0.6266,-0.6265,-0.6265,-0.6281,-0.6269,-0.6269,-0.6269,-0.6269,-0.6269,-0.6273,-0.627,-0.6271,-0.6269,-0.6268,-0.6268,-0.6265,-0.6266,-0.6264,-0.6263,-0.6264,-0.6261,-0.6261,-0.6259,-0.6258,-0.6255,-0.6257,-0.6255,-0.6255,-0.6254,-0.6253,-0.6266,-0.6255,-0.6255,-0.6255,-0.6255,-0.6255,0,-0.6259,-0.626,-0.6258,-0.6257,-0.6256,-0.6259,-0.6258,-0.6256,-0.6254,-0.6253,-0.6252,-0.6249,-0.6246,-0.6247,-0.6245,-0.6243,-0.6244,-0.6242,-0.6242,-0.6241,-0.6252,-0.6253,-0.6241,-0.6241,-0.6241,-0.6241,-0.6241,-0.6241,-0.6252,-0.6248,-0.6249,-0.6245,-0.6245,-0.6243,-0.6242,-0.6241,-0.6241,-0.6238,-0.6236,-0.6237,-0.6237,-0.6235,-0.6233,-0.6233,-0.6232,-0.6229,-0.623,-0.6239,-0.6241,-0.6242,-0.6243,-0.6229,-0.6229,-0.6219,-0.6219,-0.6219]}]]